Starlink 3313

operational
NORAD ID: 50157 Int'l Des: 2021-125 Owner: SPXS Country: US Constellation: starlink
LEOCIRCULAR

Über Starlink 3313

Beschreibung wird geladen...

Live-Position

3D-Globus wird geladen...

Nächste Überflüge

Höhenverlauf

Altitude vs Time

uPlot chart will show altitude changes over time

Zweizeiliger Elementsatz

1 50157U 21125B 25307.23647987 .01589653 11765-4 90614-3 0 9996
2 50157 53.1943 62.2952 0009449 315.5814 44.4467 16.18289768218033
Epoch: 3. Nov. 2025 • Age: 4 hours

Aktueller Status

Höhe 219.2 km
Geschwindigkeit 7.78 km/s
Subsatellitenpunkt -0.90°S, 134.02°W
Startdatum 18. Dez. 2021
Alter 3.8 years
Typ internet

Technische Details

Klassifizierung Payload
Masse 290.00 kg
Trockenmasse 270.00 kg
Gesamtmasse 290.00 kg
Länge 0.20 m
Durchmesser 2.80 m
Spannweite 9.00 m
Form Box + pan
Hersteller SPXS
Bus-Typ Starlink
Phasenstatus In Orbit
Besitzer/Staat SPXS/US

Große Konstellationen

Loading constellations...